Flock 4g-32

operational
NORAD ID: 62643 Int'l Des: 2025-009 Owner: PLAN Country: US Constellation: planet
LEOCIRCULARRETROGRADESSO

About Flock 4g-32

Description loading...

Live Position

Loading 3D Globe...

Upcoming Passes

Altitude History

Altitude vs Time

uPlot chart will show altitude changes over time

Two-Line Element Set

1 62643U 25009AL 25339.21486824 .00094303 00000-0 28621-2 0 9994
2 62643 97.4109 57.7575 0001294 289.3669 70.7434 15.33721015 49330
Epoch: Dec 5, 2025 • Age: 19 hours

Current Status

Altitude 477.4 km
Velocity 7.63 km/s
Sub-Earth Point 70.49°N, 178.68°E
Launch Date Jan 14, 2025
Age 0.8 years
Type earth observation

Technical Details

Classification Payload
Mass 5.70 kg
Dry Mass 5.70 kg
Total Mass 5.70 kg
Length 0.30 m
Diameter 0.10 m
Span 0.30 m
Shape Box+2 pan
Manufacturer PLAN
Bus Type Cubesat 3U
Phase Status In Orbit
Owner/State PLAN/US

Large Constellations

Loading constellations...